Flag for Norway Weather past 2 weeks in Drammen, Norway

Now
59 °F

Low clouds.


Feels Like: 56 °F
Forecast: 60 / 76 °F
Wind: 16 mph from Southwest

Location: Oslo / Fornebu

Current Time: Jul 29, 2014 at 6:38:48 AM

Latest Report: Jul 29, 2014 at 5:50 AM


Visibility: N/A

Pressure: 29.89 "Hg

Humidity: 94%

Dew point: 57 °F

Location of DrammenLocation

Historic Weather in Drammen — Graph

°F

Drammen temperature yesterday

Maximum temperature yesterday: 68 °F (at 4:50 PM)
Minimum temperature yesterday: 59 °F (at 5:20 AM)
Average temperature yesterday: 62 °F

Past Weeks' High & Low Weather Summary

 TemperatureHumidityPressure
High75 °F (Jul 20, 2:20 PM)100% (Jul 15, 9:50 PM)30.39 "Hg (Jul 15, 9:50 PM)
Low54 °F (Jul 18, 7:20 AM)47% (Jul 21, 12:20 AM)29.65 "Hg (Jul 15, 9:20 AM)
Average61 °F87%30.06 "Hg
* Reported Jul 14 5:20 AM — Jul 29 5:20 AM, Drammen, Weather by CustomWeather, © 2014

Note: Actual official high and low records may vary slightly from our data, if they occured in-between our weather recording intervals... More about our weather records

Advertising

Drammen weather history for previous 24 hours

 ConditionsComfort  
Time TempWeatherWind HumidityBarometerVisibility
5:20 AM
Jul 29
59 °FLow clouds.15 mph94%29.89 "HgN/A
4:50 AM59 °FLow clouds.14 mph94%29.89 "HgN/A
4:20 AM59 °FLow clouds.14 mph94%29.89 "HgN/A
3:50 AM59 °FLow clouds.13 mph100%29.92 "HgN/A
3:20 AM59 °FLow clouds.10 mph94%29.92 "HgN/A
2:50 AM59 °FLow clouds.13 mph94%29.92 "HgN/A
2:20 AM59 °FLow clouds.10 mph94%29.92 "HgN/A
1:50 AM61 °FLow clouds.10 mph94%29.95 "HgN/A
1:20 AM61 °FLow clouds.7 mph88%29.95 "HgN/A
12:50 AM61 °FOvercast.10 mph88%29.95 "HgN/A
12:20 AM61 °FOvercast.7 mph83%29.95 "HgN/A
11:50 PM
Jul 28
61 °FOvercast.6 mph83%29.95 "HgN/A
11:20 PM61 °FOvercast.6 mph83%29.95 "HgN/A
10:50 PM61 °FOvercast.7 mph88%29.95 "HgN/A
10:20 PM61 °FOvercast.7 mph88%29.98 "HgN/A
9:50 PM61 °FOvercast.10 mph88%29.95 "HgN/A
9:20 PM63 °FOvercast.9 mph83%29.95 "HgN/A
8:50 PM63 °FOvercast.9 mph83%29.95 "HgN/A
8:20 PM63 °FOvercast.9 mph88%29.98 "HgN/A
7:50 PM63 °FOvercast.8 mph88%29.98 "HgN/A
7:20 PM63 °FOvercast.7 mph88%29.98 "HgN/A
6:50 PM64 °FOvercast.5 mph83%29.98 "HgN/A
6:20 PM64 °FOvercast.3 mph88%29.98 "HgN/A
5:50 PM64 °FOvercast.2 mph83%29.98 "HgN/A
5:20 PM64 °FOvercast.3 mph83%29.98 "HgN/A
4:50 PM68 °FPartly sunny.No wind78%29.98 "HgN/A
4:20 PM64 °FPartly sunny.2 mph88%29.98 "HgN/A
3:50 PM64 °FPartly sunny.2 mph88%29.98 "HgN/A
3:20 PM64 °FPartly sunny.3 mph88%29.98 "HgN/A
2:50 PM66 °FPartly sunny.5 mph83%29.98 "HgN/A
2:20 PM64 °FPartly sunny.2 mph88%29.98 "HgN/A
1:50 PM63 °FPartly sunny.1 mph88%29.98 "HgN/A
1:20 PM64 °FPartly sunny.2 mph83%29.98 "HgN/A
12:50 PM63 °FOvercast.3 mph88%29.98 "HgN/A
12:20 PM63 °FPartly sunny.5 mph88%29.98 "HgN/A
11:50 AM63 °FBroken clouds.5 mph88%29.98 "HgN/A
11:20 AM63 °FPartly sunny.6 mph88%29.98 "HgN/A
10:50 AM63 °FPartly sunny.8 mph88%29.98 "HgN/A
10:20 AM63 °FBroken clouds.9 mph88%29.98 "HgN/A
9:50 AM61 °FPartly sunny.9 mph94%29.98 "HgN/A
9:20 AM63 °FPartly sunny.9 mph88%29.98 "HgN/A
8:50 AM61 °FPartly sunny.9 mph94%29.98 "HgN/A
8:20 AM61 °FPartly sunny.8 mph94%29.98 "HgN/A
7:50 AM61 °FPartly sunny.9 mph94%29.98 "HgN/A
7:20 AM61 °FPartly sunny.8 mph94%29.98 "HgN/A
6:50 AM61 °FPartly sunny.8 mph94%29.98 "HgN/A
6:20 AM61 °FPartly sunny.8 mph94%29.95 "HgN/A
Weather by CustomWeather, © 2014

See weather overviewHow to use our weather pages